Williamtown, Australia

7:23 PM AEST on April 27, 2017 (GMT +1000)
Williamtown Military

Weather History for YWLM - March, 2013

Change the Weather History Date:

Tuesday, March 12, 2013

  Actual Average Record
Temperature  
Mean Temperature 70 °F -  
Max Temperature 79 °F - - ()
Min Temperature 60 °F - - ()
Cooling Degree Days 4    
Growing Degree Days 20 (Base 50)    
Moisture  
Dew Point 62 °F    
Average Humidity 76    
Maximum Humidity 100    
Minimum Humidity 38    
Precipitation  
Precipitation 0.00 in - - ()
Sea Level Pressure  
Sea Level Pressure 30.08 in    
Wind  
Wind Speed 4 mph ()    
Max Wind Speed 15 mph    
Max Gust Speed -    
Visibility 6.1 miles    
Events Fog    
T = Trace of Precipitation, MM = Missing Value Source: Averaged Metar Reports

Daily Weather History Graph

Daily Weather History Graph

Search for Another Location

Airport or City:

Trip Planner

Search our weather history database for the weather conditions in past years. The results will help you decide how hot, cold, wet, or windy it might be!

Date:

Astronomy

Mar. 12, 2013 Rise Set
Actual Time 6:49 AM AEDT 7:14 PM AEDT
Civil Twilight 6:25 AM AEDT 7:39 PM AEDT
Nautical Twilight 5:56 AM AEDT 8:08 PM AEDT
Astronomical Twilight 5:26 AM AEDT 8:37 PM AEDT
Moon 6:57 AM AEDT (3/12) 7:10 PM AEDT (3/12)
Length of Visible Light 13h 14m
Length of Day
12h 24m
New Moon, 0% of the Moon is Illuminated
Mar 12
New Moon
Mar 20
First Quarter
Mar 27
Full
Apr 3
Last Quarter
Apr 10
New

Hourly Weather History & Observations

Time (AEDT) Temp. Dew Point Humidity Pressure Visibility Wind Dir Wind Speed Gust Speed Precip Events Conditions
12:00 AM 66 °F 64 °F 92% 30.15 in - Calm Calm - -  
12:00 AM 66.2 °F 64.4 °F 94% 30.12 in 6.2 mi Calm Calm - N/A   Scattered Clouds
12:30 AM 66.2 °F 64.4 °F 94% 30.12 in - NE 4.6 mph - N/A   Unknown
1:00 AM 64.4 °F 64.4 °F 100% 30.12 in 6.2 mi Calm Calm - N/A   Unknown
1:30 AM 64.4 °F 62.6 °F 94% 30.12 in 6.2 mi Calm Calm - N/A   Unknown
2:00 AM 64 °F 62 °F 92% 30.13 in - Calm Calm - -  
2:00 AM 64.4 °F 62.6 °F 94% 30.12 in 6.2 mi Calm Calm - N/A   Unknown
2:30 AM 62.6 °F 60.8 °F 94% 30.09 in 6.2 mi Calm Calm - N/A   Unknown
3:00 AM 63 °F 62 °F 94% 30.12 in - Calm Calm - -  
3:00 AM 62.6 °F 62.6 °F 100% 30.09 in 6.2 mi Calm Calm - N/A   Unknown
3:30 AM 62.6 °F 60.8 °F 94% 30.09 in 6.2 mi Calm Calm - N/A   Scattered Clouds
3:40 AM 62.6 °F 60.8 °F 94% 30.09 in 3.7 mi Calm Calm - N/A   Unknown
3:57 AM 62.6 °F 60.8 °F 94% 30.09 in 6.2 mi Calm Calm - N/A   Unknown
4:00 AM 62.6 °F 60.8 °F 94% 30.09 in 6.2 mi Calm Calm - N/A   Unknown
4:30 AM 62.6 °F 60.8 °F 94% 30.09 in 6.2 mi Calm Calm - N/A   Unknown
5:00 AM 62 °F 61 °F 94% 30.11 in - Calm Calm - -  
5:00 AM 62.6 °F 60.8 °F 94% 30.09 in 6.2 mi Calm Calm - N/A   Mostly Cloudy
5:30 AM 62.6 °F 60.8 °F 94% 30.09 in 6.2 mi Calm Calm - N/A   Mostly Cloudy
6:00 AM 62 °F 60 °F 92% 30.12 in - Calm Calm - -  
6:00 AM 62.6 °F 60.8 °F 94% 30.09 in 6.2 mi Calm Calm - N/A   Partly Cloudy
6:30 AM 60.8 °F 60.8 °F 100% 30.09 in 6.2 mi Calm Calm - N/A   Partly Cloudy
7:00 AM 60.8 °F 59.0 °F 94% 30.12 in 6.2 mi Calm Calm - N/A Fog Shallow Fog
7:30 AM 62.6 °F 60.8 °F 94% 30.12 in 6.2 mi Calm Calm - N/A   Partly Cloudy
8:00 AM 65 °F 64 °F 95% 30.13 in - Calm Calm - -  
8:00 AM 64.4 °F 64.4 °F 100% 30.12 in 6.2 mi Calm Calm - N/A   Partly Cloudy
8:30 AM 68.0 °F 66.2 °F 94% 30.12 in 6.2 mi Calm Calm - N/A   Partly Cloudy
9:00 AM 71 °F 67 °F 82% 30.14 in - Calm Calm - -  
9:00 AM 69.8 °F 66.2 °F 88% 30.12 in 6.2 mi Calm Calm - N/A   Partly Cloudy
9:30 AM 73.4 °F 64.4 °F 73% 30.12 in 6.2 mi Calm Calm - N/A   Partly Cloudy
10:00 AM 75.2 °F 62.6 °F 65% 30.12 in 6.2 mi East 8.1 mph - N/A   Scattered Clouds
10:30 AM 77.0 °F 59.0 °F 54% 30.12 in 6.2 mi ENE 9.2 mph - N/A   Scattered Clouds
11:00 AM 76 °F 61 °F 51% 30.14 in - SE 12.7 mph - -  
11:00 AM 77.0 °F 60.8 °F 57% 30.12 in - SE 12.7 mph - N/A   Overcast
11:30 AM 75.2 °F 60.8 °F 61% 30.12 in 6.2 mi East 10.4 mph - N/A   Scattered Clouds
12:00 PM 76 °F 62 °F 52% 30.14 in - East 10.4 mph - -   Overcast
12:00 PM 75.2 °F 60.8 °F 61% 30.12 in 6.2 mi East 10.4 mph - N/A   Scattered Clouds
12:30 PM 78.8 °F 60.8 °F 54% 30.12 in 6.2 mi East 10.4 mph - N/A   Scattered Clouds
1:00 PM 77.0 °F 60.8 °F 57% 30.09 in 6.2 mi ESE 12.7 mph - N/A   Scattered Clouds
1:30 PM 78.8 °F 60.8 °F 54% 30.09 in 6.2 mi SE 15.0 mph - N/A   Partly Cloudy
2:00 PM 78 °F 59 °F 43% 30.09 in - ESE 12.7 mph - -  
2:00 PM 78.8 °F 59.0 °F 51% 30.06 in 6.2 mi ESE 12.7 mph - N/A   Partly Cloudy
2:30 PM 78.8 °F 60.8 °F 54% 30.06 in 6.2 mi ESE 15.0 mph - N/A   Partly Cloudy
3:00 PM 79 °F 58 °F 38% 30.06 in - East 13.8 mph - -  
3:00 PM 78.8 °F 57.2 °F 47% 30.06 in 6.2 mi East 13.8 mph - N/A   Partly Cloudy
3:30 PM 78.8 °F 59.0 °F 51% 30.04 in 6.2 mi ESE 15.0 mph - N/A   Partly Cloudy
4:00 PM 77.0 °F 59.0 °F 54% 30.04 in 6.2 mi East 15.0 mph - N/A   Partly Cloudy
4:30 PM 77.0 °F 59.0 °F 54% 30.04 in 6.2 mi East 15.0 mph - N/A   Partly Cloudy
5:00 PM 78 °F 61 °F 45% 30.03 in - ESE 15.0 mph - -  
5:00 PM 77.0 °F 60.8 °F 57% 30.01 in 6.2 mi ESE 15.0 mph - N/A   Partly Cloudy
5:30 PM 77.0 °F 60.8 °F 57% 30.01 in 6.2 mi ESE 13.8 mph - N/A   Partly Cloudy
6:00 PM 76 °F 62 °F 52% 30.03 in - ESE 12.7 mph - -  
6:00 PM 75.2 °F 60.8 °F 61% 30.01 in 6.2 mi ESE 12.7 mph - N/A   Partly Cloudy
6:30 PM 75.2 °F 62.6 °F 65% 30.01 in 6.2 mi East 10.4 mph - N/A   Partly Cloudy
7:00 PM 73.4 °F 62.6 °F 69% 30.04 in 6.2 mi East 8.1 mph - N/A   Partly Cloudy
7:30 PM 71.6 °F 62.6 °F 73% 30.04 in 6.2 mi ENE 5.8 mph - N/A   Partly Cloudy
8:00 PM 71 °F 63 °F 69% 30.05 in - East 6.9 mph - -  
8:00 PM 71.6 °F 62.6 °F 73% 30.04 in 6.2 mi East 6.9 mph - N/A   Partly Cloudy
8:30 PM 69.8 °F 62.6 °F 78% 30.04 in - East 6.9 mph - N/A   Clear
9:00 PM 69 °F 63 °F 76% 30.06 in - ENE 5.8 mph - -  
9:00 PM 69.8 °F 62.6 °F 78% 30.04 in - ENE 5.8 mph - N/A   Clear
9:30 PM 66.2 °F 62.6 °F 88% 30.06 in 6.2 mi NE 4.6 mph - N/A   Scattered Clouds
10:00 PM 66.2 °F 62.6 °F 88% 30.06 in 6.2 mi ENE 4.6 mph - N/A   Mostly Cloudy
10:30 PM 68.0 °F 62.6 °F 83% 30.06 in 6.2 mi ENE 4.6 mph - N/A   Overcast
11:00 PM 67 °F 63 °F 83% 30.06 in - NE 4.6 mph - -  
11:00 PM 68.0 °F 62.6 °F 83% 30.04 in 6.2 mi NE 4.6 mph - N/A   Overcast
11:30 PM 68.0 °F 62.6 °F 83% 30.04 in 6.2 mi ENE 4.6 mph - N/A   Overcast